| time (UTC) | temp F | wind direction | speed MPH | gust MPH | rain 1hr in | rain 24hr in | rain mn in | humidity % | barometer mb |
| 20260508104531 | 39 | 94 | 6.0 | 9.0 | 0.00 | 0.00 | 0.00 | 66 | 1018.0 |
| 20260508104014 | 39 | 103 | 6.0 | 10.0 | 0.00 | 0.00 | 0.00 | 66 | 1017.9 |
| 20260508103512 | 39 | 92 | 7.0 | 10.0 | 0.00 | 0.00 | 0.00 | 66 | 1018.0 |
| 20260508103030 | 39 | 96 | 8.0 | 10.0 | 0.00 | 0.00 | 0.00 | 67 | 1017.9 |
| 20260508102513 | 39 | 102 | 7.0 | 10.0 | 0.00 | 0.00 | 0.00 | 67 | 1017.9 |
| 20260508102014 | 39 | 105 | 6.0 | 9.0 | 0.00 | 0.00 | 0.00 | 68 | 1018.0 |
| 20260508101530 | 38 | 107 | 6.0 | 9.0 | 0.00 | 0.00 | 0.00 | 68 | 1017.9 |
| 20260508101012 | 38 | 111 | 6.0 | 8.0 | 0.00 | 0.00 | 0.00 | 68 | 1018.1 |
| 20260508100511 | 38 | 120 | 5.0 | 10.0 | 0.00 | 0.00 | 0.00 | 68 | 1018.0 |
| 20260508100032 | 38 | 110 | 7.0 | 10.0 | 0.00 | 0.00 | 0.00 | 69 | 1018.2 |
| 20260508095515 | 38 | 101 | 5.0 | 8.0 | 0.00 | 0.00 | 0.00 | 69 | 1018.0 |
| 20260508095015 | 38 | 109 | 5.0 | 8.0 | 0.00 | 0.00 | 0.00 | 68 | 1018.0 |
| 20260508094534 | 38 | 103 | 6.0 | 8.0 | 0.00 | 0.00 | 0.00 | 69 | 1018.0 |
| 20260508094014 | 39 | 115 | 5.0 | 8.0 | 0.00 | 0.00 | 0.00 | 67 | 1018.0 |
| 20260508093512 | 39 | 105 | 6.0 | 8.0 | 0.00 | 0.00 | 0.00 | 67 | 1018.0 |
| 20260508093036 | 39 | 127 | 6.0 | 8.0 | 0.00 | 0.00 | 0.00 | 66 | 1018.1 |
| 20260508092514 | 39 | 103 | 5.0 | 7.0 | 0.00 | 0.00 | 0.00 | 67 | 1018.1 |
| 20260508092011 | 39 | 110 | 4.0 | 7.0 | 0.00 | 0.00 | 0.00 | 67 | 1018.0 |
| 20260508091531 | 38 | 100 | 5.0 | 7.0 | 0.00 | 0.00 | 0.00 | 68 | 1018.2 |
| 20260508091012 | 38 | 115 | 5.0 | 8.0 | 0.00 | 0.00 | 0.00 | 67 | 1018.2 |
| 20260508090514 | 39 | 116 | 4.0 | 8.0 | 0.00 | 0.00 | 0.00 | 66 | 1018.2 |
| 20260508090031 | 40 | 101 | 5.0 | 8.0 | 0.00 | 0.00 | 0.00 | 65 | 1018.2 |
| 20260508085511 | 41 | 114 | 5.0 | 8.0 | 0.00 | 0.00 | 0.00 | 62 | 1018.2 |
| 20260508085014 | 40 | 98 | 5.0 | 8.0 | 0.00 | 0.00 | 0.00 | 63 | 1018.2 |
| 20260508084530 | 40 | 96 | 5.0 | 7.0 | 0.00 | 0.00 | 0.00 | 63 | 1018.4 |
| 20260508084011 | 40 | 90 | 5.0 | 7.0 | 0.00 | 0.00 | 0.00 | 63 | 1018.3 |
| 20260508083512 | 40 | 107 | 4.0 | 6.0 | 0.00 | 0.00 | 0.00 | 63 | 1018.4 |
| 20260508083038 | 41 | 91 | 5.0 | 6.0 | 0.00 | 0.00 | 0.00 | 62 | 1018.4 |
| 20260508082519 | 41 | 86 | 4.0 | 6.0 | 0.00 | 0.00 | 0.00 | 62 | 1018.5 |
| 20260508082012 | 40 | 94 | 4.0 | 8.0 | 0.00 | 0.00 | 0.00 | 63 | 1018.5 |
| 20260508081534 | 41 | 112 | 5.0 | 8.0 | 0.00 | 0.00 | 0.00 | 61 | 1018.5 |
| 20260508081013 | 42 | 104 | 5.0 | 8.0 | 0.00 | 0.00 | 0.00 | 61 | 1018.5 |
| 20260508080517 | 42 | 113 | 4.0 | 7.0 | 0.00 | 0.00 | 0.00 | 60 | 1018.6 |
| 20260508080032 | 42 | 120 | 4.0 | 7.0 | 0.00 | 0.00 | 0.00 | 60 | 1018.6 |
| 20260508075517 | 43 | 121 | 4.0 | 9.0 | 0.00 | 0.00 | 0.00 | 57 | 1018.5 |
| 20260508075017 | 44 | 89 | 5.0 | 9.0 | 0.00 | 0.00 | 0.00 | 56 | 1018.6 |
| 20260508074540 | 44 | 104 | 5.0 | 8.0 | 0.00 | 0.00 | 0.00 | 55 | 1018.6 |
| 20260508074013 | 44 | 95 | 4.0 | 9.0 | 0.00 | 0.00 | 0.00 | 55 | 1018.5 |
| 20260508073515 | 45 | 89 | 6.0 | 9.0 | 0.00 | 0.00 | 0.00 | 54 | 1018.7 |
| 20260508073033 | 44 | 96 | 6.0 | 8.0 | 0.00 | 0.00 | 0.00 | 55 | 1018.6 |
| 20260508072512 | 44 | 84 | 5.0 | 9.0 | 0.00 | 0.00 | 0.00 | 55 | 1018.6 |
| 20260508072017 | 45 | 94 | 5.0 | 9.0 | 0.00 | 0.00 | 0.00 | 54 | 1018.7 |
| 20260508071540 | 45 | 94 | 7.0 | 9.0 | 0.00 | 0.00 | 0.00 | 54 | 1018.7 |
| 20260508071012 | 45 | 92 | 6.0 | 9.0 | 0.00 | 0.00 | 0.00 | 54 | 1018.6 |
| 20260508070515 | 46 | 96 | 5.0 | 8.0 | 0.00 | 0.00 | 0.00 | 54 | 1018.6 |
| 20260508070031 | 46 | 115 | 6.0 | 10.0 | 0.00 | 0.00 | 0.00 | 53 | 1018.8 |
| 20260508065516 | 46 | 113 | 7.0 | 10.0 | 0.00 | 0.00 | 0.00 | 52 | 1018.6 |
| 20260508065011 | 46 | 96 | 7.0 | 9.0 | 0.00 | 0.00 | 0.00 | 53 | 1018.5 |
| 20260508064532 | 46 | 110 | 5.0 | 8.0 | 0.00 | 0.00 | 0.00 | 54 | 1018.6 |
| 20260508064011 | 46 | 102 | 5.0 | 8.0 | 0.00 | 0.00 | 0.00 | 54 | 1018.5 |
| 20260508063513 | 46 | 92 | 5.0 | 9.0 | 0.00 | 0.00 | 0.00 | 54 | 1018.6 |
| 20260508063032 | 46 | 97 | 6.0 | 9.0 | 0.00 | 0.00 | 0.00 | 54 | 1018.5 |
| 20260508062511 | 46 | 105 | 6.0 | 8.0 | 0.00 | 0.00 | 0.00 | 53 | 1018.5 |
| 20260508062017 | 46 | 120 | 5.0 | 8.0 | 0.00 | 0.00 | 0.00 | 53 | 1018.5 |
| 20260508061537 | 46 | 105 | 6.0 | 9.0 | 0.00 | 0.00 | 0.00 | 52 | 1018.4 |
| 20260508061015 | 46 | 103 | 6.0 | 10.0 | 0.00 | 0.00 | 0.00 | 53 | 1018.4 |
| 20260508060514 | 46 | 114 | 7.0 | 10.0 | 0.00 | 0.00 | 0.00 | 53 | 1018.5 |
| 20260508060044 | 46 | 96 | 6.0 | 10.0 | 0.00 | 0.00 | 0.00 | 54 | 1018.4 |
| 20260508055512 | 46 | 93 | 7.0 | 10.0 | 0.00 | 0.00 | 0.00 | 54 | 1018.4 |
| 20260508055014 | 45 | 90 | 7.0 | 9.0 | 0.00 | 0.00 | 0.00 | 56 | 1018.4 |
| 20260508054531 | 45 | 97 | 6.0 | 9.0 | 0.00 | 0.00 | 0.00 | 57 | 1018.5 |
| 20260508054013 | 44 | 90 | 5.0 | 9.0 | 0.00 | 0.00 | 0.00 | 58 | 1018.5 |
| 20260508053512 | 44 | 101 | 6.0 | 9.0 | 0.00 | 0.00 | 0.00 | 58 | 1018.6 |
| 20260508053057 | 43 | 101 | 6.0 | 8.0 | 0.00 | 0.00 | 0.00 | 59 | 1018.6 |
| 20260508052514 | 43 | 98 | 6.0 | 8.0 | 0.00 | 0.00 | 0.00 | 59 | 1018.5 |
| 20260508052016 | 43 | 108 | 6.0 | 7.0 | 0.00 | 0.00 | 0.00 | 58 | 1018.5 |
| 20260508051532 | 44 | 89 | 5.0 | 7.0 | 0.00 | 0.00 | 0.00 | 57 | 1018.6 |
| 20260508051014 | 44 | 119 | 5.0 | 7.0 | 0.00 | 0.00 | 0.00 | 57 | 1018.6 |
| 20260508050515 | 44 | 105 | 4.0 | 7.0 | 0.00 | 0.00 | 0.00 | 57 | 1018.6 |
| 20260508050033 | 43 | 94 | 4.0 | 7.0 | 0.00 | 0.00 | 0.00 | 58 | 1018.6 |
| 20260508045516 | 43 | 94 | 5.0 | 6.0 | 0.00 | 0.00 | 0.00 | 58 | 1018.6 |
| 20260508045012 | 44 | 91 | 3.0 | 6.0 | 0.00 | 0.00 | 0.00 | 56 | 1018.6 |
| 20260508044532 | 44 | 89 | 4.0 | 6.0 | 0.00 | 0.00 | 0.00 | 56 | 1018.6 |
| 20260508044012 | 44 | 92 | 3.0 | 4.0 | 0.00 | 0.00 | 0.00 | 56 | 1018.6 |
| 20260508043512 | 44 | 88 | 3.0 | 4.0 | 0.00 | 0.00 | 0.00 | 57 | 1018.5 |
| 20260508043032 | 44 | 76 | 2.0 | 4.0 | 0.00 | 0.00 | 0.00 | 56 | 1018.6 |
| 20260508042513 | 44 | 78 | 3.0 | 4.0 | 0.00 | 0.00 | 0.00 | 57 | 1018.5 |
| 20260508042012 | 45 | 101 | 3.0 | 6.0 | 0.00 | 0.00 | 0.00 | 56 | 1018.6 |
| 20260508041553 | 46 | 103 | 3.0 | 6.0 | 0.00 | 0.00 | 0.00 | 54 | 1018.6 |
| 20260508041012 | 46 | 97 | 4.0 | 6.0 | 0.00 | 0.00 | 0.00 | 52 | 1018.7 |
| 20260508040514 | 46 | 97 | 4.0 | 6.0 | 0.00 | 0.00 | 0.00 | 52 | 1018.6 |
| 20260508040032 | 45 | 104 | 3.0 | 4.0 | 0.00 | 0.00 | 0.00 | 54 | 1018.7 |
| 20260508035512 | 45 | 82 | 2.0 | 3.0 | 0.00 | 0.00 | 0.00 | 55 | 1018.7 |
| 20260508035016 | 46 | 70 | 2.0 | 4.0 | 0.00 | 0.00 | 0.00 | 55 | 1018.7 |
| 20260508034534 | 46 | 80 | 2.0 | 4.0 | 0.00 | 0.00 | 0.00 | 54 | 1018.6 |
| 20260508034014 | 47 | 73 | 3.0 | 3.0 | 0.00 | 0.00 | 0.00 | 53 | 1018.6 |
| 20260508033515 | 48 | 86 | 2.0 | 3.0 | 0.00 | 0.00 | 0.00 | 50 | 1018.6 |
| 20260508033031 | 49 | 97 | 2.0 | 3.0 | 0.00 | 0.00 | 0.00 | 48 | 1018.5 |
| 20260508032511 | 50 | 113 | 1.0 | 3.0 | 0.00 | 0.00 | 0.00 | 47 | 1018.4 |
| 20260508032013 | 50 | 101 | 1.0 | 3.0 | 0.00 | 0.00 | 0.00 | 47 | 1018.3 |
| 20260508031535 | 51 | 89 | 2.0 | 3.0 | 0.00 | 0.00 | 0.00 | 43 | 1018.2 |
| 20260508031012 | 53 | 104 | 1.0 | 2.0 | 0.00 | 0.00 | 0.00 | 40 | 1018.2 |
| 20260508030514 | 54 | 122 | 0.0 | 1.0 | 0.00 | 0.00 | 0.00 | 36 | 1018.1 |
| 20260508030036 | 55 | 0 | 0.0 | 0.0 | 0.00 | 0.00 | 0.00 | 35 | 1018.1 |
| 20260508025513 | 57 | 0 | 0.0 | 1.0 | 0.00 | 0.00 | 0.00 | 33 | 1018.0 |
| 20260508025011 | 57 | 0 | 0.0 | 2.0 | 0.00 | 0.00 | 0.00 | 33 | 1017.9 |
| 20260508024531 | 57 | 293 | 0.0 | 2.0 | 0.00 | 0.00 | 0.00 | 33 | 1017.8 |
| 20260508024012 | 57 | 293 | 0.0 | 1.0 | 0.00 | 0.00 | 0.00 | 34 | 1017.7 |
| 20260508023512 | 57 | 293 | 0.0 | 2.0 | 0.00 | 0.00 | 0.00 | 33 | 1017.6 |
| 20260508023035 | 57 | 293 | 1.0 | 3.0 | 0.00 | 0.00 | 0.00 | 33 | 1017.7 |
| 20260508022513 | 57 | 293 | 2.0 | 3.0 | 0.00 | 0.00 | 0.00 | 33 | 1017.6 |
| 20260508022014 | 57 | 303 | 1.0 | 2.0 | 0.00 | 0.00 | 0.00 | 33 | 1017.5 |
| 20260508021534 | 57 | 314 | 1.0 | 4.0 | 0.00 | 0.00 | 0.00 | 34 | 1017.6 |
| 20260508021013 | 57 | 298 | 2.0 | 4.0 | 0.00 | 0.00 | 0.00 | 33 | 1017.5 |
| 20260508020512 | 58 | 317 | 1.0 | 2.0 | 0.00 | 0.00 | 0.00 | 34 | 1017.5 |
| 20260508020040 | 58 | 289 | 0.0 | 3.0 | 0.00 | 0.00 | 0.00 | 33 | 1017.4 |
| 20260508015514 | 59 | 289 | 1.0 | 4.0 | 0.00 | 0.00 | 0.00 | 31 | 1017.4 |
| 20260508015012 | 60 | 274 | 2.0 | 4.0 | 0.00 | 0.00 | 0.00 | 30 | 1017.3 |
| 20260508014530 | 60 | 281 | 2.0 | 5.0 | 0.00 | 0.00 | 0.00 | 30 | 1017.4 |
| 20260508014011 | 62 | 280 | 2.0 | 5.0 | 0.00 | 0.00 | 0.00 | 30 | 1017.4 |
| 20260508013515 | 62 | 269 | 3.0 | 6.0 | 0.00 | 0.00 | 0.00 | 28 | 1017.3 |
| 20260508013035 | 63 | 282 | 3.0 | 7.0 | 0.00 | 0.00 | 0.00 | 28 | 1017.4 |
| 20260508012513 | 63 | 266 | 4.0 | 7.0 | 0.00 | 0.00 | 0.00 | 26 | 1017.3 |
| 20260508012013 | 63 | 285 | 5.0 | 9.0 | 0.00 | 0.00 | 0.00 | 26 | 1017.4 |
| 20260508011531 | 63 | 278 | 5.0 | 10.0 | 0.00 | 0.00 | 0.00 | 27 | 1017.3 |
| 20260508011013 | 63 | 269 | 6.0 | 11.0 | 0.00 | 0.00 | 0.00 | 27 | 1017.3 |
| 20260508010511 | 64 | 278 | 9.0 | 12.0 | 0.00 | 0.00 | 0.00 | 25 | 1017.3 |
| 20260508010030 | 64 | 293 | 8.0 | 12.0 | 0.00 | 0.00 | 0.00 | 25 | 1017.3 |
| 20260508005515 | 64 | 281 | 9.0 | 12.0 | 0.00 | 0.00 | 0.00 | 26 | 1017.4 |
| 20260508005016 | 64 | 297 | 6.0 | 14.0 | 0.00 | 0.00 | 0.00 | 26 | 1017.3 |
| 20260508004533 | 64 | 294 | 6.0 | 14.0 | 0.00 | 0.00 | 0.00 | 26 | 1017.4 |
| 20260508004012 | 65 | 268 | 10.0 | 14.0 | 0.00 | 0.00 | 0.00 | 25 | 1017.4 |
| 20260508003516 | 65 | 271 | 8.0 | 13.0 | 0.00 | 0.00 | 0.00 | 25 | 1017.5 |
| 20260508003036 | 65 | 293 | 9.0 | 13.0 | 0.00 | 0.00 | 0.00 | 26 | 1017.6 |
| 20260508002512 | 65 | 277 | 8.0 | 16.0 | 0.00 | 0.00 | 0.00 | 25 | 1017.7 |
| 20260508002015 | 65 | 284 | 9.0 | 16.0 | 0.00 | 0.00 | 0.00 | 26 | 1017.7 |
| 20260508001537 | 65 | 285 | 9.0 | 14.0 | 0.00 | 0.00 | 0.00 | 25 | 1017.8 |
| 20260508001014 | 65 | 304 | 10.0 | 17.0 | 0.00 | 0.00 | 0.00 | 26 | 1017.8 |
| 20260508000513 | 65 | 280 | 6.0 | 17.0 | 0.00 | 0.00 | 0.00 | 27 | 1017.8 |
| 20260508000033 | 65 | 292 | 11.0 | 16.0 | 0.00 | 0.00 | 0.00 | 27 | 1017.8 |
| 20260507235514 | 65 | 278 | 9.0 | 17.0 | 0.00 | 0.00 | 0.00 | 27 | 1017.8 |
| 20260507235017 | 65 | 283 | 10.0 | 17.0 | 0.00 | 0.00 | 0.00 | 26 | 1017.8 |
| 20260507234533 | 65 | 264 | 7.0 | 17.0 | 0.00 | 0.00 | 0.00 | 26 | 1017.7 |
| 20260507234014 | 64 | 300 | 10.0 | 17.0 | 0.00 | 0.00 | 0.00 | 27 | 1017.8 |
| 20260507233514 | 64 | 281 | 7.0 | 17.0 | 0.00 | 0.00 | 0.00 | 25 | 1017.8 |
| 20260507233052 | 65 | 309 | 11.0 | 17.0 | 0.00 | 0.00 | 0.00 | 27 | 1017.8 |
| 20260507232513 | 65 | 303 | 10.0 | 16.0 | 0.00 | 0.00 | 0.00 | 25 | 1017.9 |
| 20260507232013 | 64 | 267 | 9.0 | 15.0 | 0.00 | 0.00 | 0.00 | 26 | 1018.0 |
| 20260507231537 | 64 | 299 | 10.0 | 15.0 | 0.00 | 0.00 | 0.00 | 26 | 1017.8 |
| 20260507231013 | 64 | 269 | 9.0 | 17.0 | 0.00 | 0.00 | 0.00 | 27 | 1017.9 |
| 20260507230514 | 64 | 294 | 9.0 | 17.0 | 0.00 | 0.00 | 0.00 | 25 | 1017.9 |
| 20260507230033 | 65 | 259 | 10.0 | 17.0 | 0.00 | 0.00 | 0.00 | 27 | 1017.8 |
| 20260507225514 | 66 | 266 | 10.0 | 15.0 | 0.00 | 0.00 | 0.00 | 26 | 1017.8 |
| 20260507225020 | 65 | 295 | 2.0 | 10.0 | 0.00 | 0.00 | 0.00 | 25 | 1017.8 |
| 20260507224533 | 64 | 241 | 6.0 | 14.0 | 0.00 | 0.00 | 0.00 | 26 | 1017.8 |
| 20260507224014 | 64 | 274 | 6.0 | 14.0 | 0.00 | 0.00 | 0.00 | 26 | 1017.8 |
| 20260507223516 | 64 | 291 | 8.0 | 16.0 | 0.00 | 0.00 | 0.00 | 27 | 1017.9 |
| 20260507223031 | 65 | 276 | 8.0 | 16.0 | 0.00 | 0.00 | 0.00 | 26 | 1017.9 |
| 20260507222516 | 64 | 266 | 7.0 | 16.0 | 0.00 | 0.00 | 0.00 | 29 | 1017.9 |
| 20260507222015 | 64 | 297 | 3.0 | 13.0 | 0.00 | 0.00 | 0.00 | 25 | 1017.9 |
| 20260507221535 | 64 | 230 | 7.0 | 16.0 | 0.00 | 0.00 | 0.00 | 25 | 1018.0 |
| 20260507221013 | 64 | 279 | 10.0 | 16.0 | 0.00 | 0.00 | 0.00 | 26 | 1018.1 |
| 20260507220514 | 64 | 264 | 6.0 | 13.0 | 0.00 | 0.00 | 0.00 | 27 | 1018.1 |
| 20260507220032 | 65 | 272 | 7.0 | 14.0 | 0.00 | 0.00 | 0.00 | 27 | 1018.1 |
| 20260507215517 | 64 | 245 | 7.0 | 14.0 | 0.00 | 0.00 | 0.00 | 27 | 1018.2 |
| 20260507215015 | 63 | 249 | 3.0 | 14.0 | 0.00 | 0.00 | 0.00 | 27 | 1018.3 |
| 20260507214535 | 64 | 274 | 8.0 | 14.0 | 0.00 | 0.00 | 0.00 | 27 | 1018.3 |
| 20260507214013 | 63 | 281 | 5.0 | 14.0 | 0.00 | 0.00 | 0.00 | 26 | 1018.4 |
| 20260507213514 | 64 | 256 | 6.0 | 14.0 | 0.00 | 0.00 | 0.00 | 26 | 1018.6 |
| 20260507213039 | 63 | 305 | 8.0 | 13.0 | 0.00 | 0.00 | 0.00 | 27 | 1018.6 |
| 20260507212514 | 63 | 264 | 4.0 | 12.0 | 0.00 | 0.00 | 0.00 | 26 | 1018.6 |
| 20260507212016 | 63 | 120 | 4.0 | 12.0 | 0.00 | 0.00 | 0.00 | 26 | 1018.8 |
| 20260507211532 | 63 | 264 | 6.0 | 12.0 | 0.00 | 0.00 | 0.00 | 26 | 1018.8 |
| 20260507211018 | 63 | 285 | 5.0 | 16.0 | 0.00 | 0.00 | 0.00 | 28 | 1018.8 |
| 20260507210516 | 62 | 255 | 6.0 | 16.0 | 0.00 | 0.00 | 0.00 | 27 | 1018.9 |
| 20260507210038 | 63 | 250 | 10.0 | 15.0 | 0.00 | 0.00 | 0.00 | 28 | 1019.1 |
| 20260507205513 | 63 | 293 | 7.0 | 15.0 | 0.00 | 0.00 | 0.00 | 27 | 1019.2 |
| 20260507205013 | 63 | 269 | 8.0 | 14.0 | 0.00 | 0.00 | 0.00 | 28 | 1019.2 |
| 20260507204532 | 63 | 226 | 6.0 | 12.0 | 0.00 | 0.00 | 0.00 | 27 | 1019.3 |
| 20260507204014 | 62 | 217 | 5.0 | 12.0 | 0.00 | 0.00 | 0.00 | 26 | 1019.4 |
| 20260507203516 | 62 | 188 | 5.0 | 12.0 | 0.00 | 0.00 | 0.00 | 26 | 1019.5 |
| 20260507203059 | 63 | 263 | 6.0 | 13.0 | 0.00 | 0.00 | 0.00 | 25 | 1019.4 |
| 20260507202513 | 62 | 229 | 5.0 | 13.0 | 0.00 | 0.00 | 0.00 | 27 | 1019.5 |
| 20260507202014 | 61 | 264 | 7.0 | 13.0 | 0.00 | 0.00 | 0.00 | 27 | 1019.5 |
| 20260507201536 | 61 | 244 | 5.0 | 12.0 | 0.00 | 0.00 | 0.00 | 27 | 1019.6 |
| 20260507201014 | 60 | 265 | 8.0 | 13.0 | 0.00 | 0.00 | 0.00 | 26 | 1019.6 |
| 20260507200515 | 61 | 294 | 6.0 | 13.0 | 0.00 | 0.00 | 0.00 | 29 | 1019.7 |
| 20260507200033 | 60 | 276 | 5.0 | 12.0 | 0.00 | 0.00 | 0.00 | 27 | 1019.8 |
| 20260507195513 | 61 | 286 | 8.0 | 13.0 | 0.00 | 0.00 | 0.00 | 26 | 1019.9 |
| 20260507195014 | 60 | 300 | 8.0 | 15.0 | 0.00 | 0.00 | 0.00 | 27 | 1019.9 |
| 20260507194559 | 60 | 260 | 9.0 | 15.0 | 0.00 | 0.00 | 0.00 | 28 | 1019.9 |
| 20260507194013 | 60 | 290 | 5.0 | 14.0 | 0.00 | 0.00 | 0.00 | 27 | 1019.9 |
| 20260507193515 | 60 | 277 | 9.0 | 14.0 | 0.00 | 0.00 | 0.00 | 27 | 1020.0 |
| 20260507193035 | 60 | 288 | 6.0 | 14.0 | 0.00 | 0.00 | 0.00 | 28 | 1020.0 |
| 20260507192515 | 60 | 287 | 7.0 | 13.0 | 0.00 | 0.00 | 0.00 | 30 | 1020.1 |
| 20260507192014 | 60 | 163 | 4.0 | 11.0 | 0.00 | 0.00 | 0.00 | 29 | 1020.2 |
| 20260507191535 | 60 | 271 | 5.0 | 11.0 | 0.00 | 0.00 | 0.00 | 28 | 1020.1 |
| 20260507191013 | 60 | 195 | 3.0 | 11.0 | 0.00 | 0.00 | 0.00 | 28 | 1020.3 |
| 20260507190514 | 59 | 296 | 4.0 | 11.0 | 0.00 | 0.00 | 0.00 | 28 | 1020.3 |
| 20260507190033 | 58 | 245 | 3.0 | 10.0 | 0.00 | 0.00 | 0.00 | 31 | 1020.3 |
| 20260507185514 | 58 | 294 | 6.0 | 9.0 | 0.00 | 0.00 | 0.00 | 30 | 1020.4 |
| 20260507185013 | 58 | 313 | 5.0 | 10.0 | 0.00 | 0.00 | 0.00 | 29 | 1020.3 |
| 20260507184537 | 58 | 295 | 5.0 | 11.0 | 0.00 | 0.00 | 0.00 | 29 | 1020.4 |
| 20260507184015 | 58 | 293 | 5.0 | 12.0 | 0.00 | 0.00 | 0.00 | 29 | 1020.4 |
| 20260507183512 | 58 | 297 | 6.0 | 12.0 | 0.00 | 0.00 | 0.00 | 32 | 1020.5 |
| 20260507183042 | 57 | 262 | 3.0 | 12.0 | 0.00 | 0.00 | 0.00 | 31 | 1020.5 |
| 20260507182513 | 57 | 291 | 5.0 | 12.0 | 0.00 | 0.00 | 0.00 | 30 | 1020.6 |
| 20260507182015 | 57 | 271 | 6.0 | 11.0 | 0.00 | 0.00 | 0.00 | 32 | 1020.6 |
| 20260507181533 | 57 | 311 | 7.0 | 11.0 | 0.00 | 0.00 | 0.00 | 30 | 1020.7 |
| 20260507181019 | 57 | 302 | 6.0 | 12.0 | 0.00 | 0.00 | 0.00 | 30 | 1020.8 |
| 20260507180514 | 57 | 257 | 5.0 | 12.0 | 0.00 | 0.00 | 0.00 | 34 | 1020.8 |
| 20260507180036 | 56 | 223 | 5.0 | 10.0 | 0.00 | 0.00 | 0.00 | 32 | 1020.9 |
| 20260507175517 | 56 | 303 | 5.0 | 10.0 | 0.00 | 0.00 | 0.00 | 31 | 1020.9 |
| 20260507175014 | 56 | 315 | 7.0 | 12.0 | 0.00 | 0.00 | 0.00 | 28 | 1021.0 |
| 20260507174537 | 56 | 147 | 4.0 | 12.0 | 0.00 | 0.00 | 0.00 | 29 | 1020.9 |
| 20260507174014 | 56 | 307 | 3.0 | 12.0 | 0.00 | 0.00 | 0.00 | 30 | 1021.1 |
| 20260507173514 | 55 | 318 | 3.0 | 10.0 | 0.00 | 0.00 | 0.00 | 30 | 1021.2 |
| 20260507173052 | 55 | 307 | 6.0 | 10.0 | 0.00 | 0.00 | 0.00 | 30 | 1021.2 |
| 20260507172514 | 55 | 202 | 2.0 | 7.0 | 0.00 | 0.00 | 0.00 | 31 | 1021.3 |
| 20260507172013 | 54 | 0 | 2.0 | 7.0 | 0.00 | 0.00 | 0.00 | 32 | 1021.5 |
| 20260507171542 | 53 | 316 | 3.0 | 7.0 | 0.00 | 0.00 | 0.00 | 33 | 1021.5 |
| 20260507171015 | 53 | 61 | 2.0 | 7.0 | 0.00 | 0.00 | 0.00 | 32 | 1021.6 |
| 20260507170514 | 53 | 269 | 4.0 | 7.0 | 0.00 | 0.00 | 0.00 | 35 | 1021.6 |
| 20260507170034 | 53 | 274 | 0.0 | 6.0 | 0.00 | 0.00 | 0.00 | 35 | 1021.6 |
| 20260507165512 | 52 | 295 | 2.0 | 7.0 | 0.00 | 0.08 | 0.00 | 36 | 1021.9 |
| 20260507165015 | 52 | 245 | 5.0 | 7.0 | 0.00 | 0.08 | 0.00 | 37 | 1022.0 |
| 20260507164543 | 52 | 186 | 0.0 | 7.0 | 0.00 | 0.08 | 0.00 | 36 | 1021.9 |
| 20260507164014 | 52 | 278 | 3.0 | 7.0 | 0.00 | 0.08 | 0.00 | 36 | 1022.1 |
| 20260507163515 | 52 | 155 | 1.0 | 5.0 | 0.00 | 0.08 | 0.00 | 36 | 1022.3 |
| 20260507163033 | 51 | 222 | 2.0 | 5.0 | 0.00 | 0.08 | 0.00 | 38 | 1022.3 |
| 20260507162517 | 51 | 246 | 2.0 | 7.0 | 0.00 | 0.08 | 0.00 | 39 | 1022.3 |
| 20260507162017 | 50 | 233 | 1.0 | 7.0 | 0.00 | 0.08 | 0.00 | 39 | 1022.3 |
| 20260507161540 | 50 | 210 | 3.0 | 10.0 | 0.00 | 0.08 | 0.00 | 41 | 1022.4 |
| 20260507161016 | 49 | 297 | 4.0 | 10.0 | 0.00 | 0.08 | 0.00 | 39 | 1022.5 |
| 20260507160512 | 49 | 256 | 3.0 | 6.0 | 0.00 | 0.08 | 0.00 | 42 | 1022.4 |
| 20260507160037 | 48 | 281 | 3.0 | 6.0 | 0.00 | 0.08 | 0.00 | 40 | 1022.6 |
| 20260507155514 | 48 | 232 | 2.0 | 5.0 | 0.00 | 0.11 | 0.00 | 40 | 1022.5 |
| 20260507155013 | 48 | 276 | 2.0 | 5.0 | 0.00 | 0.11 | 0.00 | 41 | 1022.6 |
| 20260507154535 | 47 | 245 | 3.0 | 6.0 | 0.00 | 0.11 | 0.00 | 40 | 1022.6 |
| 20260507154015 | 47 | 0 | 2.0 | 6.0 | 0.00 | 0.11 | 0.00 | 40 | 1022.7 |
| 20260507153515 | 47 | 243 | 3.0 | 6.0 | 0.00 | 0.11 | 0.00 | 40 | 1022.7 |
| 20260507153032 | 47 | 246 | 4.0 | 7.0 | 0.00 | 0.11 | 0.00 | 42 | 1022.8 |
| 20260507152517 | 46 | 229 | 4.0 | 7.0 | 0.00 | 0.11 | 0.00 | 41 | 1022.9 |
| 20260507152013 | 46 | 297 | 3.0 | 6.0 | 0.00 | 0.11 | 0.00 | 42 | 1022.9 |
| 20260507151532 | 46 | 259 | 3.0 | 6.0 | 0.00 | 0.11 | 0.00 | 40 | 1023.0 |
| 20260507151013 | 46 | 264 | 3.0 | 6.0 | 0.00 | 0.11 | 0.00 | 42 | 1023.0 |
| 20260507150512 | 45 | 262 | 3.0 | 6.0 | 0.00 | 0.11 | 0.00 | 43 | 1023.0 |
| 20260507150032 | 46 | 290 | 2.0 | 5.0 | 0.00 | 0.11 | 0.00 | 43 | 1023.1 |
| 20260507145514 | 45 | 240 | 2.0 | 4.0 | 0.00 | 0.18 | 0.00 | 43 | 1023.0 |
| 20260507145019 | 45 | 234 | 2.0 | 4.0 | 0.00 | 0.18 | 0.00 | 41 | 1023.0 |
| 20260507144534 | 45 | 273 | 1.0 | 4.0 | 0.00 | 0.18 | 0.00 | 42 | 1023.1 |
| 20260507144014 | 45 | 242 | 1.0 | 4.0 | 0.00 | 0.18 | 0.00 | 41 | 1023.1 |
| 20260507143519 | 44 | 167 | 2.0 | 6.0 | 0.00 | 0.18 | 0.00 | 43 | 1023.0 |
| 20260507143036 | 43 | 108 | 2.0 | 6.0 | 0.00 | 0.18 | 0.00 | 43 | 1023.0 |
| 20260507142515 | 43 | 116 | 3.0 | 8.0 | 0.00 | 0.18 | 0.00 | 43 | 1023.0 |
| 20260507142012 | 43 | 91 | 4.0 | 8.0 | 0.00 | 0.18 | 0.00 | 44 | 1023.0 |
| 20260507141532 | 42 | 118 | 4.0 | 9.0 | 0.00 | 0.18 | 0.00 | 43 | 1023.0 |
| 20260507141014 | 41 | 113 | 6.0 | 11.0 | 0.00 | 0.18 | 0.00 | 46 | 1023.0 |
| 20260507140514 | 41 | 102 | 7.0 | 12.0 | 0.00 | 0.18 | 0.00 | 46 | 1023.0 |
| 20260507140031 | 40 | 129 | 8.0 | 12.0 | 0.00 | 0.18 | 0.00 | 46 | 1022.9 |
| 20260507135513 | 39 | 85 | 9.0 | 12.0 | 0.00 | 0.18 | 0.00 | 46 | 1023.0 |
| 20260507135019 | 39 | 96 | 8.0 | 12.0 | 0.00 | 0.18 | 0.00 | 46 | 1022.9 |
| 20260507134531 | 38 | 111 | 7.0 | 12.0 | 0.00 | 0.18 | 0.00 | 50 | 1022.8 |
| 20260507134013 | 37 | 91 | 6.0 | 11.0 | 0.00 | 0.18 | 0.00 | 50 | 1022.8 |
| 20260507133513 | 37 | 107 | 7.0 | 12.0 | 0.00 | 0.18 | 0.00 | 50 | 1022.8 |
| 20260507133033 | 36 | 95 | 7.0 | 12.0 | 0.00 | 0.18 | 0.00 | 51 | 1022.7 |
| 20260507132517 | 36 | 100 | 8.0 | 12.0 | 0.00 | 0.18 | 0.00 | 51 | 1022.8 |
| 20260507132015 | 36 | 94 | 9.0 | 12.0 | 0.00 | 0.18 | 0.00 | 52 | 1022.6 |
| 20260507131538 | 35 | 92 | 8.0 | 12.0 | 0.00 | 0.18 | 0.00 | 53 | 1022.5 |
| 20260507131014 | 35 | 105 | 7.0 | 11.0 | 0.00 | 0.18 | 0.00 | 54 | 1022.5 |
| 20260507130516 | 34 | 100 | 6.0 | 10.0 | 0.00 | 0.18 | 0.00 | 55 | 1022.4 |
| 20260507130034 | 33 | 88 | 5.0 | 9.0 | 0.00 | 0.18 | 0.00 | 57 | 1022.3 |
| 20260507125514 | 32 | 128 | 5.0 | 9.0 | 0.00 | 0.18 | 0.00 | 59 | 1022.3 |
| 20260507125016 | 32 | 129 | 5.0 | 9.0 | 0.00 | 0.18 | 0.00 | 59 | 1022.2 |
| 20260507124532 | 32 | 111 | 5.0 | 11.0 | 0.00 | 0.18 | 0.00 | 59 | 1022.3 |
| 20260507124013 | 32 | 155 | 6.0 | 11.0 | 0.00 | 0.18 | 0.00 | 59 | 1022.1 |
| 20260507123517 | 32 | 95 | 8.0 | 11.0 | 0.00 | 0.18 | 0.00 | 58 | 1022.1 |
| 20260507123038 | 31 | 98 | 7.0 | 11.0 | 0.00 | 0.18 | 0.00 | 60 | 1022.0 |
| 20260507122513 | 31 | 91 | 7.0 | 11.0 | 0.00 | 0.18 | 0.00 | 61 | 1022.0 |
| 20260507122014 | 30 | 102 | 8.0 | 13.0 | 0.00 | 0.18 | 0.00 | 61 | 1022.1 |
| 20260507121531 | 30 | 80 | 8.0 | 13.0 | 0.00 | 0.18 | 0.00 | 61 | 1022.0 |
| 20260507121016 | 30 | 89 | 8.0 | 12.0 | 0.00 | 0.18 | 0.00 | 62 | 1022.0 |
| 20260507120515 | 30 | 82 | 7.0 | 12.0 | 0.00 | 0.18 | 0.00 | 62 | 1022.0 |
| 20260507120041 | 30 | 96 | 7.0 | 13.0 | 0.00 | 0.18 | 0.00 | 62 | 1022.1 |
| 20260507115513 | 31 | 94 | 10.0 | 13.0 | 0.00 | 0.18 | 0.00 | 61 | 1021.9 |
| 20260507115013 | 31 | 98 | 9.0 | 13.0 | 0.00 | 0.18 | 0.00 | 62 | 1021.9 |
| 20260507114532 | 31 | 89 | 9.0 | 13.0 | 0.00 | 0.18 | 0.00 | 62 | 1021.9 |
| 20260507114014 | 31 | 77 | 9.0 | 13.0 | 0.00 | 0.18 | 0.00 | 62 | 1022.1 |
| 20260507113514 | 31 | 67 | 9.0 | 13.0 | 0.00 | 0.18 | 0.00 | 62 | 1022.0 |
| 20260507113041 | 30 | 75 | 8.0 | 10.0 | 0.00 | 0.18 | 0.00 | 64 | 1022.1 |
| 20260507112515 | 30 | 76 | 8.0 | 10.0 | 0.00 | 0.18 | 0.00 | 65 | 1022.0 |
| 20260507112016 | 30 | 86 | 7.0 | 13.0 | 0.00 | 0.18 | 0.00 | 65 | 1022.1 |
| 20260507111531 | 31 | 88 | 8.0 | 13.0 | 0.00 | 0.18 | 0.00 | 64 | 1022.0 |
| 20260507111012 | 31 | 72 | 9.0 | 12.0 | 0.00 | 0.18 | 0.00 | 64 | 1022.0 |
| 20260507110513 | 31 | 85 | 9.0 | 12.0 | 0.00 | 0.18 | 0.00 | 64 | 1022.1 |
| 20260507110037 | 31 | 92 | 7.0 | 12.0 | 0.00 | 0.18 | 0.00 | 64 | 1022.1 |
| 20260507105543 | 31 | 99 | 9.0 | 15.0 | 0.00 | 0.18 | 0.00 | 63 | 1022.0 |
| 20260507105015 | 31 | 91 | 10.0 | 15.0 | 0.00 | 0.18 | 0.00 | 63 | 1022.1 |